TimeEST,TemperatureF,Dew PointF,Humidity,Sea Level PressureIn,VisibilityMPH,Wind Direction,Wind SpeedMPH,Gust SpeedMPH,PrecipitationIn,Events,Conditions,WindDirDegrees,DateUTC
12:56 AM,30.0,24.1,79,30.44,10.0,Calm,Calm,-,N/A,,Clear,0,2012-11-15 05:56:00
1:56 AM,30.0,25.0,82,30.45,10.0,North,3.5,-,N/A,,Clear,10,2012-11-15 06:56:00
2:56 AM,36.0,28.9,76,30.42,10.0,North,4.6,-,N/A,,Scattered Clouds,10,2012-11-15 07:56:00
3:56 AM,36.0,28.9,76,30.41,10.0,North,3.5,-,N/A,,Scattered Clouds,10,2012-11-15 08:56:00
4:56 AM,39.9,32.0,73,30.43,10.0,North,4.6,-,N/A,,Overcast,10,2012-11-15 09:56:00
5:22 AM,39.2,32.0,75,30.43,10.0,North,5.8,-,N/A,,Overcast,10,2012-11-15 10:22:00
5:56 AM,39.9,32.0,73,30.43,10.0,NNE,6.9,-,N/A,,Overcast,20,2012-11-15 10:56:00
6:56 AM,39.9,32.0,73,30.43,10.0,NNE,6.9,-,N/A,,Overcast,20,2012-11-15 11:56:00
7:56 AM,39.9,32.0,73,30.43,10.0,North,9.2,-,N/A,,Overcast,10,2012-11-15 12:56:00
8:56 AM,41.0,32.0,70,30.42,10.0,NNE,9.2,16.1,N/A,,Overcast,20,2012-11-15 13:56:00
9:56 AM,41.0,32.0,70,30.42,10.0,NNE,8.1,-,N/A,,Overcast,30,2012-11-15 14:56:00
10:56 AM,43.0,32.0,65,30.40,10.0,NNE,9.2,-,N/A,,Overcast,20,2012-11-15 15:56:00
11:56 AM,42.1,32.0,67,30.38,10.0,NNE,4.6,-,N/A,,Overcast,20,2012-11-15 16:56:00
12:56 PM,43.0,33.1,68,30.36,10.0,Variable,6.9,16.1,N/A,,Overcast,0,2012-11-15 17:56:00
1:56 PM,43.0,30.9,62,30.35,10.0,Calm,Calm,-,N/A,,Overcast,0,2012-11-15 18:56:00
2:56 PM,43.0,30.9,62,30.36,10.0,North,5.8,-,N/A,,Overcast,360,2012-11-15 19:56:00
3:56 PM,41.0,30.0,65,30.36,10.0,NNW,8.1,-,N/A,,Overcast,330,2012-11-15 20:56:00
4:29 PM,39.2,28.4,65,30.35,10.0,NNW,4.6,-,N/A,,Scattered Clouds,330,2012-11-15 21:29:00
4:56 PM,39.0,30.0,70,30.35,10.0,Calm,Calm,-,N/A,,Clear,0,2012-11-15 21:56:00
5:56 PM,37.0,30.0,76,30.35,10.0,Calm,Calm,-,N/A,,Clear,0,2012-11-15 22:56:00
6:56 PM,37.0,30.0,76,30.34,10.0,Calm,Calm,-,N/A,,Clear,0,2012-11-15 23:56:00
7:56 PM,37.0,30.0,76,30.34,10.0,Calm,Calm,-,N/A,,Clear,0,2012-11-16 00:56:00
8:56 PM,37.0,30.0,76,30.34,10.0,Calm,Calm,-,N/A,,Clear,0,2012-11-16 01:56:00
9:56 PM,36.0,30.0,79,30.32,10.0,Calm,Calm,-,N/A,,Clear,0,2012-11-16 02:56:00
10:56 PM,35.1,28.9,78,30.31,10.0,Calm,Calm,-,N/A,,Clear,0,2012-11-16 03:56:00
11:56 PM,34.0,28.9,82,30.30,10.0,Calm,Calm,-,N/A,,Clear,0,2012-11-16 04:56:00